Wetbulb
56.72 56.80 56.66 57.03 57.18 57.16 56.47 56.81 57.12 57.42 57.76 58.18 58.64 59.04 59.33 59.45 58.86 60.46 55.26 60.61 61.66 65.00 63.05 61.31 59.90 58.81 57.92 57.55 58.30 57.62 54.26 52.65 53.03 53.17 57.55 65.27 64.47 67.37 68.54 66.99 68.18 68.50 67.65 69.19 73.67
56.31 56.47 56.47 56.22 56.75 56.95 56.59 56.41 56.59 57.08 57.35 57.92 58.21 58.62 58.87 59.05 58.81 56.25 64.28 63.92 65.57 67.77 59.77 58.20 55.66 56.64 55.85 56.25 57.08 55.63 54.03 53.70 56.47 57.21 58.95 63.81 64.05 66.11 64.34 65.63 66.46 67.53 71.24 71.80 73.21
55.98 56.13 56.07 56.02 56.13 56.30 56.37 56.55 56.39 56.72 57.06 57.30 57.64 58.23 58.96 59.77 56.35 56.74 66.30 64.97 67.58 66.68 60.97 60.36 57.38 56.58 54.17 55.37 55.19 54.86 53.44 56.56 55.98 57.55 59.60 62.07 63.23 67.04 64.20 63.66 66.09 65.79 69.71 71.28 71.74
55.41 55.73 55.71 55.63 55.58 55.98 56.09 56.00 55.92 56.25 56.52 56.79 57.34 58.08 58.97 60.72 50.04 61.16 70.05 66.51 67.88 63.97 60.71 57.70 56.74 54.60 53.11 51.81 54.90 51.83 54.74 56.69 55.31 57.60 58.40 59.89 63.99 65.10 65.20 64.67 67.75 67.55 71.06 71.12 70.53
55.05 55.32 55.30 55.02 55.34 55.64 55.66 55.74 55.54 55.63 55.74 56.18 57.10 58.24 60.25 55.47 53.88 60.48 68.66 67.91 62.31 60.92 58.93 55.72 55.59 55.48 52.55 53.21 53.83 52.50 53.77 55.66 56.04 55.92 56.72 58.59 61.24 64.10 65.44 66.76 68.03 68.73 70.24 70.63 70.03
54.73 54.79 54.71 54.48 55.02 55.35 55.10 55.04 54.98 55.36 55.53 56.26 57.54 58.33 58.35 50.90 58.82 63.76 65.53 60.68 60.45 60.37 58.16 57.91 57.35 57.75 55.01 54.13 53.66 54.45 54.70 55.16 56.21 56.66 56.14 56.65 59.21 62.72 64.33 67.21 67.35 68.18 69.10 70.97 70.32
55.01 54.86 54.30 54.03 54.65 54.98 54.98 54.63 54.54 55.70 57.15 57.01 58.51 60.55 56.61 55.01 59.22 61.04 62.33 59.87 61.63 59.70 56.47 59.98 59.49 57.45 56.60 54.45 56.43 55.49 53.16 54.83 55.20 54.77 54.52 58.71 57.26 59.85 64.00 65.59 65.50 67.64 68.56 70.84 71.16
54.50 54.35 53.62 53.62 54.12 54.48 54.57 54.38 54.93 58.22 57.07 58.03 59.63 60.37 54.71 59.79 60.49 59.88 61.29 59.13 60.04 59.96 59.54 60.32 60.14 58.11 56.79 57.11 55.12 53.19 53.51 50.91 54.21 57.58 57.58 57.35 52.25 58.66 63.37 64.18 64.02 65.80 68.40 70.09 71.40
54.05 53.55 53.10 52.92 53.70 54.11 53.66 53.59 55.74 58.96 58.73 59.89 60.75 58.40 52.94 59.76 57.73 59.56 60.46 58.86 58.77 59.02 60.00 59.02 59.05 56.58 55.68 52.83 51.24 52.33 48.64 50.43 51.79 57.17 57.32 57.37 53.67 59.17 61.78 63.60 63.72 65.44 67.53 69.58 70.76
53.27 52.54 52.66 52.99 53.41 53.35 52.60 54.13 57.35 58.86 60.36 61.22 60.19 54.93 56.15 54.57 58.18 59.21 61.04 60.37 57.34 57.63 56.85 56.85 56.61 53.71 53.43 51.60 46.26 48.43 48.69 50.73 50.89 54.25 56.76 55.74 54.92 57.83 60.99 64.19 64.55 65.08 66.70 67.82 69.72
52.15 52.43 52.23 52.42 52.89 52.08 54.12 59.73 57.53 56.83 57.90 53.50 52.19 51.53 53.57 58.00 60.36 57.91 60.71 58.86 57.95 56.79 53.05 55.73 52.08 49.89 51.67 52.49 52.21 50.91 50.38 49.84 52.43 54.01 52.88 53.23 53.67 55.28 56.72 59.85 60.53 62.30 64.49 67.17 68.87
51.37 51.75 52.23 52.10 51.96 52.04 54.34 55.94 51.00 51.23 51.05 56.67 56.16 54.76 55.54 57.31 54.24 56.99 60.27 55.96 54.86 52.21 54.48 52.70 49.79 52.90 52.78 51.90 50.47 50.08 49.51 50.12 52.20 53.71 53.78 53.03 52.88 54.86 56.59 58.13 60.63 62.27 64.25 66.25 68.72
51.69 51.96 52.00 51.96 51.39 54.43 53.39 52.09 51.71 54.26 52.18 53.77 55.89 54.99 55.37 55.94 53.18 55.26 57.60 56.98 53.60 52.30 52.84 50.81 51.63 53.38 52.08 51.06 49.95 50.47 49.36 49.82 50.03 52.98 54.05 52.76 51.58 53.93 56.28 61.14 63.55 63.85 64.63 65.75 65.58
51.54 51.65 51.54 50.87 52.48 51.73 53.84 52.18 52.75 55.56 48.96 50.51 51.02 54.21 55.47 55.03 51.80 57.17 58.78 56.84 54.07 51.55 52.63 52.30 53.93 51.44 51.27 50.46 51.71 48.89 52.32 51.38 50.94 50.41 47.27 53.16 46.42 52.96 55.33 57.31 60.20 62.02 62.96 62.70 63.51
51.30 51.65 51.31 50.42 50.13 50.65 50.34 52.57 55.35 55.65 40.37 50.67 51.04 57.20 56.03 52.45 53.07 53.90 59.25 56.91 52.52 52.14 52.85 50.42 50.95 50.86 49.90 51.06 52.84 50.67 52.41 52.25 52.03 50.95 50.83 50.20 47.59 52.07 54.92 54.75 57.50 60.86 61.51 60.99 61.34
51.38 51.23 50.60 52.47 51.49 52.07 52.53 52.72 57.00 47.06 39.19 48.53 51.31 50.90 51.47 52.82 52.54 55.11 54.98 57.83 56.68 53.31 53.56 52.11 54.30 53.20 52.20 53.51 53.33 53.45 52.58 52.70 52.79 51.38 46.07 49.13 48.19 49.20 52.52 54.72 57.81 61.18 60.99 59.91 59.87
50.77 50.47 49.42 51.10 50.64 52.23 53.09 52.57 46.14 41.26 48.20 47.14 48.68 50.23 50.84 49.86 50.89 52.84 51.69 52.04 50.42 48.12 48.33 50.37 51.12 53.58 53.96 51.79 53.56 53.00 52.21 46.47 44.66 44.94 44.44 50.44 47.67 52.13 55.93 57.23 59.57 59.81 59.88 59.55 59.72
50.41 49.26 50.98 51.97 54.58 52.94 51.69 49.47 40.53 44.94 45.69 50.25 49.90 49.48 48.21 49.79 50.26 51.73 51.02 49.73 52.90 51.59 49.26 46.76 44.73 50.74 53.67 52.41 51.36 51.65 51.91 47.40 41.62 42.98 45.30 49.78 45.68 51.33 57.58 60.06 60.87 60.17 59.84 59.04 58.86
48.83 51.85 50.07 53.69 52.70 52.24 48.49 42.49 43.68 45.77 46.34 47.40 48.60 47.37 48.57 49.38 49.10 50.35 50.72 50.17 52.14 53.18 48.26 47.45 46.73 51.91 52.81 54.11 54.02 51.22 49.19 53.47 49.27 48.80 45.64 47.77 51.29 54.99 58.34 58.70 59.46 60.08 59.76 59.03 58.41
47.26 48.05 49.57 53.30 54.44 49.61 45.06 41.69 46.37 47.80 49.93 49.04 45.11 48.84 48.11 48.66 47.31 48.86 49.34 51.76 51.63 53.89 54.89 51.73 46.95 50.96 51.86 53.44 53.18 53.17 54.63 48.09 49.60 42.93 41.34 46.00 47.16 50.16 54.79 56.92 59.12 59.79 60.05 59.65 58.85
47.05 44.61 52.13 55.25 53.19 46.25 41.23 43.80 46.56 49.39 50.49 48.30 47.07 47.25 49.09 49.08 49.10 48.61 49.13 51.00 53.33 53.12 54.63 53.54 51.64 49.39 51.74 50.38 49.88 50.34 50.08 51.13 52.37 50.21 44.49 43.20 47.56 55.54 55.78 58.02 58.68 60.05 61.50 60.43 59.40
45.82 42.02 52.36 53.40 47.15 45.78 42.61 45.39 47.08 47.64 50.12 48.95 48.79 48.33 48.38 49.60 50.29 49.21 48.76 51.15 54.16 54.60 51.15 53.78 52.20 48.24 48.91 53.58 54.69 53.07 51.81 52.47 47.59 46.91 48.59 47.87 48.06 57.23 58.61 59.28 60.12 60.30 61.60 61.15 60.72
43.49 44.09 52.69 52.60 43.66 44.62 46.45 45.05 47.81 46.83 47.60 46.57 45.66 47.67 50.13 49.81 48.29 51.13 50.86 53.92 53.72 53.95 52.77 54.20 50.78 46.20 47.49 51.20 53.46 51.17 52.32 52.91 53.10 53.34 48.61 46.17 48.31 58.43 58.99 59.04 59.87 60.09 61.12 60.31 59.82
42.67 40.44 45.59 48.17 50.45 48.17 45.48 45.05 44.54 48.13 47.25 48.00 46.50 47.94 49.04 49.35 52.32 50.87 52.21 53.50 54.75 54.00 54.72 56.45 52.70 49.63 45.70 48.36 51.63 49.91 51.38 52.66 52.96 48.73 48.68 49.08 50.17 55.13 57.34 57.86 59.39 60.04 61.23 59.88 59.23
43.33 41.32 45.42 44.24 44.77 47.19 48.52 45.78 44.22 44.17 48.43 49.81 47.32 46.98 45.94 47.10 50.01 49.82 53.34 53.64 54.45 54.15 54.68 55.89 50.53 51.50 50.96 51.28 51.20 51.25 50.93 51.48 50.98 51.59 48.87 50.31 51.11 53.91 56.62 58.40 59.80 61.49 61.01 58.90 57.90
40.37 41.43 45.98 44.86 47.81 46.60 45.40 46.65 46.02 45.70 48.02 46.86 47.60 48.45 48.22 47.24 51.28 49.96 52.90 54.21 53.20 54.82 54.56 56.88 51.80 52.66 49.42 51.16 50.73 49.42 51.30 51.77 51.81 51.97 51.74 51.56 51.53 57.14 58.14 58.32 58.12 60.18 59.99 58.24 57.83
46.71 44.81 42.12 43.14 44.81 45.62 45.60 46.61 47.66 49.60 50.26 50.68 50.66 49.76 50.10 49.12 53.82 55.89 58.34 57.66 57.46 55.42 54.43 54.12 53.57 51.25 47.29 50.45 50.37 47.50 51.03 52.02 52.53 53.51 52.74 49.99 53.69 56.89 55.27 56.62 58.12 59.34 60.10 58.83 58.13
MSLP
1021.73 1021.19 1020.76 1020.40 1020.02 1019.55 1019.16 1018.65 1018.17 1017.88 1017.48 1017.16 1016.90 1016.64 1016.46 1016.23 1016.02 1015.62 1013.16 1011.92 1011.86 1012.41 1012.71 1011.94 1011.59 1011.11 1010.82 1009.75 1009.62 1008.99 1006.76 1004.96 1005.23 1005.55 1006.06 1007.43 1007.43 1008.01 1008.26 1008.29 1008.92 1009.21 1009.47 1009.83 1011.17
1021.74 1021.27 1020.84 1020.42 1019.92 1019.45 1018.97 1018.47 1017.99 1017.57 1017.15 1016.86 1016.63 1016.45 1016.37 1016.09 1014.74 1012.91 1011.46 1011.79 1012.21 1012.39 1011.78 1011.01 1010.56 1010.51 1009.65 1009.10 1008.84 1008.04 1006.02 1005.25 1005.80 1006.18 1006.16 1006.89 1007.09 1007.86 1008.33 1008.12 1008.55 1008.97 1010.03 1010.44 1011.58
1021.75 1021.28 1020.86 1020.40 1019.81 1019.28 1018.77 1018.24 1017.77 1017.38 1016.93 1016.58 1016.35 1016.22 1016.13 1015.67 1013.45 1010.57 1011.32 1011.74 1012.05 1012.12 1011.02 1010.67 1010.18 1009.90 1008.94 1008.59 1008.23 1007.57 1006.05 1006.07 1006.49 1006.70 1006.70 1006.79 1007.05 1007.54 1007.52 1007.39 1007.52 1008.14 1009.47 1010.61 1011.26
1021.84 1021.35 1020.85 1020.34 1019.70 1019.08 1018.49 1017.94 1017.43 1016.99 1016.68 1016.43 1016.21 1016.13 1015.97 1014.86 1011.52 1010.61 1011.43 1011.71 1012.01 1011.34 1010.91 1010.51 1010.02 1009.39 1008.47 1008.14 1007.90 1007.55 1006.90 1006.86 1006.62 1007.08 1007.09 1006.83 1006.97 1007.27 1007.15 1006.66 1007.13 1007.81 1008.95 1010.30 1010.79
1021.95 1021.43 1020.87 1020.29 1019.62 1018.92 1018.29 1017.69 1017.17 1016.73 1016.42 1016.19 1016.03 1015.98 1015.83 1013.26 1010.51 1010.52 1011.13 1011.60 1011.71 1011.22 1010.35 1009.96 1009.44 1008.77 1008.12 1007.84 1008.00 1007.67 1006.85 1006.97 1007.05 1007.13 1007.19 1007.05 1006.87 1006.79 1006.80 1006.79 1007.69 1007.76 1008.71 1009.85 1010.37
1021.95 1021.40 1020.83 1020.14 1019.43 1018.72 1018.04 1017.43 1016.84 1016.33 1016.02 1015.82 1015.79 1015.87 1014.69 1011.70 1010.27 1010.54 1010.70 1011.20 1010.73 1010.53 1009.98 1009.64 1008.97 1008.91 1008.06 1007.86 1007.68 1007.20 1007.15 1006.96 1006.91 1006.76 1007.05 1007.07 1006.75 1006.93 1006.30 1006.74 1007.41 1007.84 1008.46 1009.24 1009.86
1021.91 1021.34 1020.68 1019.95 1019.22 1018.51 1017.74 1017.04 1016.37 1015.78 1015.43 1015.37 1015.51 1015.02 1013.00 1010.39 1010.23 1010.53 1010.69 1010.49 1010.31 1010.00 1009.77 1009.75 1009.61 1009.23 1008.58 1008.01 1007.95 1007.58 1007.12 1006.50 1006.58 1006.78 1006.84 1006.94 1006.73 1006.33 1006.06 1006.25 1006.88 1007.52 1008.21 1008.86 1009.36
1021.87 1021.27 1020.58 1019.77 1018.95 1018.23 1017.44 1016.70 1015.99 1015.26 1015.08 1015.15 1015.34 1014.24 1011.27 1010.18 1010.41 1010.44 1010.34 1010.41 1010.55 1010.39 1009.82 1009.95 1009.97 1009.20 1008.63 1008.37 1007.94 1007.24 1006.72 1005.55 1006.09 1006.68 1007.22 1006.85 1004.86 1005.21 1005.81 1006.32 1006.51 1006.97 1007.71 1008.49 1008.96
1021.81 1021.21 1020.47 1019.65 1018.73 1017.88 1017.01 1016.31 1015.70 1015.15 1015.08 1015.09 1014.68 1013.24 1010.08 1010.70 1010.14 1009.53 1009.85 1009.63 1010.17 1010.31 1010.29 1010.39 1009.83 1008.92 1008.77 1007.83 1006.94 1006.70 1005.45 1005.31 1005.73 1006.26 1006.52 1006.46 1004.42 1004.85 1005.68 1006.29 1006.25 1006.57 1007.12 1007.88 1008.53
1021.75 1021.11 1020.35 1019.53 1018.54 1017.56 1016.57 1015.71 1015.47 1015.23 1014.74 1014.21 1013.54 1012.67 1009.92 1008.92 1009.17 1009.40 1009.57 1009.51 1009.62 1009.90 1010.05 1009.90 1009.11 1008.43 1007.83 1007.13 1005.75 1005.48 1005.51 1005.31 1005.26 1006.13 1005.97 1005.73 1005.10 1004.84 1005.76 1005.99 1006.12 1006.17 1006.65 1007.18 1007.91
1021.75 1021.03 1020.18 1019.33 1018.35 1017.42 1015.99 1014.59 1014.89 1014.08 1013.15 1011.00 1010.16 1009.49 1009.14 1009.04 1009.28 1008.98 1009.26 1009.23 1009.09 1009.36 1008.86 1009.03 1008.35 1007.39 1006.88 1006.87 1006.77 1006.58 1005.86 1005.38 1005.53 1006.22 1006.29 1005.53 1005.32 1004.99 1005.43 1005.89 1005.76 1005.77 1006.20 1007.07 1007.82
1021.73 1020.93 1020.02 1019.02 1018.06 1017.00 1016.02 1014.08 1015.00 1015.15 1012.46 1010.08 1009.69 1009.22 1009.17 1009.26 1008.70 1008.59 1008.89 1008.50 1008.44 1008.12 1008.23 1008.74 1007.67 1006.99 1007.61 1007.86 1007.61 1007.17 1006.54 1005.95 1005.80 1006.55 1006.36 1005.38 1005.40 1005.25 1006.34 1006.34 1006.55 1006.50 1006.55 1007.05 1008.07
1021.70 1020.96 1020.05 1018.80 1017.57 1016.49 1015.76 1015.05 1015.12 1014.80 1012.55 1008.91 1008.39 1008.20 1008.33 1008.82 1008.10 1007.72 1008.24 1007.75 1007.68 1007.55 1007.63 1007.23 1006.91 1007.37 1007.93 1007.88 1007.63 1007.06 1006.52 1006.16 1006.03 1006.19 1006.27 1005.92 1005.40 1005.72 1006.84 1007.25 1007.79 1008.60 1009.05 1009.44 1009.96
1021.64 1021.05 1020.32 1018.96 1017.42 1016.65 1015.19 1015.47 1015.01 1014.72 1011.57 1008.21 1007.84 1007.13 1007.61 1007.54 1007.50 1007.23 1007.51 1007.24 1007.13 1006.91 1007.21 1007.03 1007.00 1007.71 1007.61 1007.26 1007.32 1006.46 1006.73 1006.47 1006.21 1006.19 1005.22 1005.75 1004.50 1005.35 1006.42 1007.68 1008.63 1009.37 1010.09 1011.01 1011.32
1021.56 1021.07 1020.60 1020.27 1018.58 1016.31 1015.49 1015.35 1014.94 1014.51 1010.11 1007.45 1007.13 1007.21 1006.77 1006.50 1005.63 1006.43 1006.94 1007.08 1006.50 1006.61 1007.01 1006.38 1006.86 1007.29 1007.04 1006.89 1007.08 1006.37 1007.02 1006.65 1006.43 1005.95 1005.34 1005.52 1005.69 1005.20 1006.52 1007.35 1008.86 1010.03 1011.10 1012.09 1012.66
1021.31 1020.90 1020.57 1018.58 1018.12 1016.50 1015.96 1015.31 1014.70 1012.67 1008.54 1006.71 1006.55 1006.54 1006.45 1006.34 1005.88 1006.19 1006.66 1006.76 1006.51 1006.43 1006.99 1006.17 1006.99 1006.81 1006.46 1006.77 1007.19 1007.26 1007.08 1006.70 1006.49 1005.69 1005.56 1005.08 1005.88 1004.52 1005.69 1007.74 1008.86 1010.25 1011.72 1012.85 1013.46
1020.80 1020.34 1020.36 1019.42 1016.41 1016.21 1016.01 1014.27 1012.52 1009.74 1007.47 1006.41 1005.80 1005.80 1005.38 1005.49 1005.47 1005.66 1005.76 1005.92 1005.53 1005.81 1005.93 1006.35 1006.27 1006.53 1006.57 1006.52 1006.86 1006.86 1006.36 1005.61 1005.64 1005.10 1004.76 1005.68 1006.15 1005.80 1007.40 1008.65 1009.73 1010.74 1012.04 1013.23 1013.93
1020.17 1019.37 1017.90 1017.13 1016.58 1016.54 1015.52 1013.53 1010.29 1007.67 1006.83 1006.60 1005.89 1005.39 1005.00 1004.73 1004.82 1004.78 1004.88 1004.80 1005.13 1005.12 1004.61 1005.21 1005.32 1005.52 1005.98 1005.91 1005.36 1005.79 1005.45 1004.57 1004.74 1004.28 1004.60 1006.12 1005.78 1006.22 1008.04 1009.46 1010.58 1011.72 1012.63 1013.65 1014.34
1019.57 1017.15 1016.76 1015.93 1016.31 1016.55 1014.64 1011.57 1008.48 1007.65 1007.30 1006.67 1005.97 1005.11 1004.47 1004.36 1004.04 1004.13 1003.92 1003.82 1004.01 1004.45 1004.53 1004.47 1004.39 1004.89 1005.25 1005.49 1005.45 1005.44 1005.68 1005.34 1005.30 1005.54 1005.28 1004.80 1005.93 1007.40 1008.37 1009.35 1010.41 1011.25 1012.37 1013.49 1014.63
1019.26 1017.08 1015.23 1016.00 1016.19 1015.61 1013.37 1009.92 1008.38 1008.23 1007.88 1007.06 1005.64 1004.78 1003.64 1003.68 1003.81 1003.47 1003.21 1003.23 1003.38 1004.12 1004.43 1004.59 1004.39 1004.84 1005.26 1005.53 1005.81 1005.34 1005.07 1005.82 1005.81 1005.32 1005.25 1004.51 1005.27 1005.42 1007.22 1008.16 1009.40 1010.47 1011.62 1013.09 1014.53
1018.96 1016.29 1015.32 1015.52 1015.78 1014.00 1010.93 1009.21 1008.46 1008.13 1008.26 1007.25 1006.00 1005.26 1004.31 1003.32 1003.22 1002.72 1002.41 1002.99 1003.10 1003.60 1004.29 1004.33 1004.69 1004.88 1005.31 1004.83 1004.34 1005.40 1005.13 1005.47 1005.64 1005.55 1005.16 1005.02 1004.55 1005.14 1006.01 1007.31 1008.31 1009.35 1010.69 1012.44 1013.88
1018.56 1015.64 1015.18 1015.18 1014.32 1011.45 1009.82 1008.75 1008.17 1007.77 1008.04 1007.44 1006.95 1005.99 1005.09 1004.10 1003.23 1002.50 1002.31 1002.61 1003.28 1003.40 1003.75 1004.36 1004.95 1004.22 1004.20 1004.67 1004.90 1004.27 1004.29 1004.70 1005.06 1005.41 1005.77 1005.71 1005.45 1006.26 1006.29 1007.16 1008.06 1008.92 1010.42 1012.04 1013.53
1018.02 1015.67 1015.05 1015.10 1011.91 1010.10 1009.24 1008.32 1008.52 1007.82 1007.40 1007.04 1006.59 1005.98 1005.38 1004.52 1003.74 1002.78 1002.59 1002.85 1003.35 1003.61 1003.66 1004.46 1004.75 1004.49 1004.24 1004.98 1005.35 1004.85 1004.91 1005.20 1005.38 1005.58 1005.06 1005.46 1005.72 1006.37 1007.15 1007.67 1008.37 1008.94 1010.50 1012.26 1013.59
1018.74 1015.24 1013.96 1014.15 1011.60 1010.44 1008.55 1008.28 1007.96 1007.80 1007.28 1007.04 1006.61 1006.01 1005.56 1004.68 1004.06 1002.99 1002.85 1003.74 1003.80 1003.74 1004.37 1004.51 1004.27 1004.14 1003.42 1003.13 1003.38 1004.30 1004.64 1004.99 1005.20 1004.94 1004.72 1005.22 1005.20 1006.34 1007.19 1007.71 1008.44 1009.41 1010.63 1012.25 1013.72
1018.56 1015.14 1014.74 1012.07 1011.08 1010.21 1009.14 1007.89 1007.43 1007.16 1007.37 1007.00 1006.61 1006.13 1005.36 1004.59 1003.58 1003.21 1002.78 1003.66 1004.17 1004.65 1004.63 1004.65 1004.17 1004.12 1003.71 1003.45 1003.56 1003.86 1004.14 1004.67 1004.89 1004.86 1004.97 1004.56 1005.33 1005.59 1006.68 1007.37 1008.10 1009.15 1010.73 1012.22 1013.57
1018.61 1016.75 1015.38 1013.60 1012.06 1010.59 1009.47 1008.27 1007.33 1006.80 1006.82 1006.52 1006.20 1005.32 1005.34 1004.65 1003.50 1002.85 1002.78 1002.81 1003.14 1004.53 1004.50 1004.77 1004.01 1004.21 1003.88 1004.18 1004.01 1003.92 1003.99 1004.47 1004.68 1005.04 1005.23 1005.61 1005.78 1006.38 1007.56 1008.15 1008.48 1008.95 1010.68 1012.07 1013.28
1018.98 1019.06 1017.53 1013.45 1011.67 1010.55 1008.94 1008.67 1007.79 1007.10 1007.05 1006.46 1006.00 1005.80 1005.13 1004.42 1004.01 1003.54 1003.18 1002.91 1002.90 1003.46 1003.94 1004.28 1004.23 1004.22 1003.74 1004.36 1004.19 1003.99 1004.10 1004.45 1004.85 1005.11 1005.20 1005.50 1005.90 1007.06 1007.77 1008.46 1008.93 1009.52 1010.71 1011.93 1013.14
Wind_Speed
18 18 18 17 16 16 17 17 17 15 14 12 10 9 8 8 8 9 12 1 4 9 7 10 10 8 8 7 5 4 8 8 5 7 10 13 11 10 2 7 8 8 2 5 18
19 19 18 19 18 17 18 18 18 17 15 13 11 9 8 7 11 15 4 3 4 9 12 13 11 10 10 8 6 9 10 5 5 5 3 14 12 13 9 11 10 12 6 12 17
19 19 20 20 20 18 18 18 18 18 15 14 11 9 8 10 9 3 3 7 8 13 9 7 7 11 10 8 9 7 11 7 6 3 2 9 12 14 13 12 13 14 12 16 17
20 20 21 21 22 20 20 19 20 19 16 13 10 8 7 9 2 7 1 10 11 10 10 9 11 12 10 10 8 9 8 5 2 4 3 6 10 13 16 5 4 7 14 17 18
20 21 22 22 22 21 21 20 21 19 16 12 9 6 6 8 6 5 1 14 14 12 12 12 11 9 12 9 9 11 7 6 7 7 9 7 11 12 17 13 2 10 14 16 17
20 21 22 23 23 22 22 21 20 18 15 11 7 4 9 10 6 4 8 18 16 15 11 10 6 3 4 7 12 5 6 8 6 9 6 11 11 13 14 14 11 12 14 17 18
19 20 22 23 23 23 23 23 21 17 12 7 7 6 8 9 3 4 11 16 13 10 12 6 1 8 3 8 4 5 9 11 7 4 6 10 9 16 10 13 16 13 13 16 18
20 21 23 24 24 24 25 23 21 13 3 6 7 7 8 4 3 7 11 9 9 6 3 4 3 5 7 2 7 11 9 14 10 9 4 13 15 17 14 10 15 15 14 15 18
21 22 23 25 25 25 25 23 15 2 3 8 7 7 6 7 8 10 12 11 11 9 4 4 6 3 6 12 11 10 13 13 10 6 8 12 8 10 10 12 14 15 16 16 16
21 22 24 25 26 26 27 17 3 4 6 6 4 7 7 5 6 8 11 8 11 13 8 9 8 9 10 10 11 12 14 8 9 9 9 14 12 8 8 12 15 16 15 16 17
23 23 24 26 27 26 16 5 7 8 9 9 2 5 3 3 5 9 13 14 12 15 14 13 11 12 13 8 8 8 8 9 9 4 6 10 11 11 5 11 14 16 15 13 11
24 25 25 26 27 25 9 3 6 5 11 15 18 15 6 1 6 11 14 13 15 18 17 8 15 9 2 6 8 10 12 12 7 3 8 8 12 4 1 6 8 11 10 9 8
21 23 25 27 28 9 6 6 7 4 8 6 12 14 13 14 8 14 19 17 17 20 16 16 2 4 11 10 11 12 13 12 12 9 7 6 12 10 5 4 6 6 4 6 4
21 21 22 30 9 8 1 5 10 4 7 8 8 7 12 10 10 12 18 16 10 18 16 14 10 6 11 12 12 12 13 12 11 11 11 8 8 12 9 6 3 4 6 5 7
20 21 18 18 11 6 6 10 7 5 7 7 7 5 7 17 9 18 17 14 16 14 12 12 11 16 13 13 10 2 2 11 14 14 9 12 9 9 10 10 5 7 8 9 10
20 20 19 2 6 10 10 12 5 8 8 5 7 10 12 16 7 12 16 13 17 15 14 16 3 8 17 9 7 3 5 8 9 10 12 11 5 7 7 2 4 8 10 9 9
22 23 17 9 4 3 10 6 7 9 4 7 5 9 14 13 14 14 21 21 14 17 17 15 14 10 4 12 9 10 10 9 10 11 10 6 6 6 7 4 2 4 6 8 7
23 27 5 9 4 6 5 8 13 4 9 1 2 7 11 12 19 16 20 21 23 19 11 14 15 21 13 17 12 16 13 8 9 7 6 7 7 8 5 5 4 4 4 5 5
27 4 5 2 7 6 8 15 7 12 2 4 6 9 12 12 9 18 18 21 22 19 12 13 14 5 14 16 17 9 11 6 8 4 9 7 8 6 8 7 7 7 5 6 7
9 6 6 4 7 8 10 19 16 3 4 5 10 5 11 15 14 17 18 19 20 22 17 8 8 10 10 9 5 12 9 8 8 10 12 9 5 4 13 12 11 10 9 9 9
6 6 7 6 9 7 14 20 23 9 7 6 6 7 8 7 16 19 14 5 20 20 21 11 7 11 11 14 15 10 12 8 7 5 8 10 5 5 8 11 12 12 12 12 12
5 7 5 9 9 8 15 19 12 13 12 9 6 8 9 4 12 14 19 18 15 19 25 17 8 8 15 7 4 6 12 16 11 12 7 9 8 2 8 10 9 10 11 11 11
5 6 6 5 8 12 12 18 13 13 13 13 12 9 2 7 6 13 13 6 11 17 16 16 11 12 11 8 7 10 11 9 6 5 7 9 4 7 7 7 8 9 11 11 12
5 5 6 8 8 11 15 16 21 15 14 12 7 12 10 12 10 7 11 7 10 16 6 12 13 17 12 13 15 15 12 12 13 9 10 11 5 11 9 9 9 7 10 11 11
5 2 7 5 12 13 9 6 17 17 14 10 15 19 15 11 13 12 11 10 7 7 9 13 13 17 18 12 9 13 16 15 14 12 8 4 8 4 7 8 10 9 10 12 12
6 5 4 10 8 10 13 11 13 18 9 13 13 14 19 16 13 11 13 12 10 11 12 8 8 12 12 10 12 12 13 14 13 9 6 4 6 4 2 3 6 8 12 13 13
2 4 5 4 8 8 13 17 11 9 10 13 9 4 11 19 17 6 10 3 4 13 11 12 9 11 11 9 10 12 13 15 12 10 9 10 2 4 3 3 2 6 10 11 11
Wind_Direction
1 1 357 350 345 342 342 338 337 334 333 329 325 322 312 299 273 215 247 227 158 158 215 158 193 198 207 214 235 262 243 211 139 200 125 155 176 193 138 157 190 182 63 101 138
358 356 352 347 343 338 337 334 333 331 330 327 326 320 304 290 260 257 191 117 157 173 196 191 186 189 202 212 203 242 254 119 93 82 134 174 201 173 189 182 189 178 129 145 152
354 352 348 344 340 335 333 329 328 326 326 324 323 316 300 281 268 147 88 166 193 188 233 226 204 204 214 213 198 186 250 121 156 66 349 174 204 177 213 195 200 190 154 160 168
351 348 345 341 337 333 330 327 325 323 322 317 313 307 297 253 269 103 186 179 178 219 191 192 192 202 215 205 191 235 240 217 84 164 223 193 202 198 216 182 241 190 154 173 181
348 345 342 338 334 330 327 324 321 317 312 304 300 295 256 228 251 70 151 167 181 198 203 196 196 212 212 208 193 234 223 224 247 252 253 252 218 211 214 224 212 171 165 183 191
345 343 340 337 332 329 326 322 318 310 300 283 272 243 246 251 90 66 146 164 184 196 200 202 216 252 221 203 223 175 246 250 260 262 234 223 211 213 224 217 207 204 193 193 197
342 339 338 335 331 328 325 322 318 308 289 254 227 230 253 265 125 110 163 182 183 204 183 180 216 225 152 187 225 239 247 210 216 207 183 216 200 221 213 214 212 210 204 207 204
342 339 336 334 330 327 324 321 317 314 246 198 196 233 262 113 170 207 183 181 197 203 232 192 232 279 247 63 210 235 227 211 143 180 135 209 200 212 204 198 221 214 206 212 211
342 339 335 334 329 326 323 318 306 302 158 161 200 240 251 133 214 197 193 181 171 184 155 149 240 258 188 224 213 203 212 224 142 206 154 221 250 102 186 211 228 219 215 210 219
342 338 335 332 328 326 322 305 197 195 188 217 256 241 223 180 142 161 184 192 170 170 180 213 216 214 220 222 223 207 234 192 189 159 199 194 251 168 183 211 224 225 222 222 217
341 337 335 332 326 325 320 212 212 185 208 245 177 268 158 138 170 189 169 177 183 184 201 201 219 217 214 224 318 290 258 234 189 120 252 238 237 243 201 227 233 232 227 226 246
339 339 336 330 326 318 278 11 51 337 292 240 246 243 229 354 183 175 184 187 193 197 208 180 227 227 220 212 222 228 232 224 214 172 236 222 237 174 289 271 292 287 281 255 223
335 337 336 330 321 297 327 69 347 287 257 245 223 223 213 210 218 184 194 202 199 210 198 229 88 237 206 196 218 225 231 230 239 172 229 246 237 172 123 99 84 67 38 32 342
332 335 339 330 293 344 211 358 322 242 270 164 198 206 189 195 220 209 201 194 206 213 212 237 192 183 203 224 215 225 211 235 224 223 236 190 269 161 138 132 111 81 65 36 11
328 330 336 327 311 286 16 323 325 230 269 112 145 101 167 187 131 186 191 207 212 207 197 209 210 213 220 222 201 78 217 223 217 226 260 193 247 120 156 159 118 78 64 51 49
324 325 331 262 270 271 314 310 229 229 239 160 146 178 168 210 205 137 180 219 225 209 218 243 175 220 216 162 212 122 197 188 211 218 224 227 249 233 143 92 120 85 71 61 64
319 315 305 295 280 347 319 250 219 241 101 161 192 185 200 180 196 184 184 191 191 199 208 215 210 195 213 204 189 208 202 192 207 204 240 132 222 53 112 129 37 49 56 50 57
316 310 247 245 214 269 237 218 231 212 220 47 242 196 199 188 207 193 190 198 210 205 202 206 203 208 191 229 208 204 220 255 243 207 218 145 233 123 125 129 117 103 99 99 91
310 288 258 230 222 230 229 214 219 230 273 241 242 231 201 201 220 195 206 209 200 204 226 202 229 166 211 207 228 174 222 295 261 264 282 255 124 169 165 170 175 170 158 128 125
311 294 245 131 173 196 224 229 233 230 272 229 238 223 223 194 205 197 194 211 205 204 216 199 213 196 170 195 198 258 174 193 213 244 240 228 239 276 184 190 184 181 177 153 149
267 274 89 167 202 200 225 219 227 221 246 241 247 251 243 228 208 197 196 174 198 196 208 190 255 156 172 206 189 182 212 231 294 315 263 269 254 85 172 179 176 175 167 162 163
290 245 97 171 221 204 228 222 227 238 211 241 264 263 259 238 225 231 218 212 199 197 203 209 217 214 200 98 335 282 239 212 234 215 234 274 281 136 146 160 171 166 155 151 159
280 285 145 254 227 213 223 225 227 223 212 218 229 235 252 259 242 224 220 150 189 176 189 183 212 207 220 193 194 228 203 235 248 276 233 237 232 144 151 168 183 182 155 155 161
276 258 177 210 269 290 211 216 218 218 236 220 244 236 243 243 229 213 195 172 187 207 46 181 216 221 221 218 205 202 210 214 212 228 234 226 243 161 190 201 197 200 164 167 174
234 237 350 203 219 227 249 222 220 214 219 216 227 238 234 237 223 218 186 156 172 145 185 191 211 217 229 256 214 211 198 196 210 239 262 277 217 141 185 205 212 191 177 173 177
295 311 350 285 280 238 222 233 232 215 210 212 232 219 224 233 240 203 195 189 180 178 177 192 204 208 208 230 225 219 210 203 215 204 210 205 236 32 43 288 249 195 182 189 183
103 264 270 280 230 239 225 226 226 221 219 253 219 253 246 223 236 298 312 247 179 175 180 182 164 190 195 206 195 212 195 195 185 199 229 221 335 108 221 263 274 214 193 194 182